XIO229 EGLF-LOWI

Flight info

Callsign XIO229
Flight time 1h 22m
Altitude 41000
Route GWC N16 BIG UL9 KONAN UL607 REMBA DCT LIRSU DCT ULNOK L607 UTABA M738 MADEB MADEB1B
Aircraft C700/M-SBDE1E2E3FGHIJ1J3J4J7P2RWXYZ/LB2D1

Departure

Time 2026-05-04 10:27
Airport Farnborough Airport (EGLF)

Arrival

Time 2026-05-04 11:49
Airport Innsbruck Airport (LOWI)
Time Latitude Longitude Altitude Speed Heading
2026-05-04 10:02 51.27832 -0.77923 218 ft 0 kts 159°
2026-05-04 10:20 51.27819 -0.77932 218 ft 4 kts 249°
2026-05-04 10:21 51.27793 -0.78068 218 ft 23 kts 221°
2026-05-04 10:21 51.27692 -0.78169 218 ft 11 kts 216°
2026-05-04 10:21 51.27667 -0.78199 219 ft 1 kts 220°
2026-05-04 10:21 51.27655 -0.78233 234 ft 4 kts 244°
2026-05-04 10:22 51.27588 -0.78341 221 ft 10 kts 217°
2026-05-04 10:22 51.27529 -0.78420 222 ft 12 kts 220°
2026-05-04 10:22 51.27462 -0.78512 222 ft 14 kts 221°
2026-05-04 10:23 51.27384 -0.78621 223 ft 16 kts 221°
2026-05-04 10:23 51.27314 -0.78735 227 ft 13 kts 239°
2026-05-04 10:25 51.27190 -0.79107 235 ft 0 kts 242°
2026-05-04 10:25 51.27184 -0.79124 236 ft 6 kts 242°
2026-05-04 10:25 51.27145 -0.79173 232 ft 8 kts 189°
2026-05-04 10:26 51.27092 -0.79141 232 ft 4 kts 149°
2026-05-04 10:26 51.27086 -0.79114 230 ft 3 kts 61°
2026-05-04 10:26 51.27104 -0.79061 229 ft 14 kts 62°
2026-05-04 10:26 51.27323 -0.78405 223 ft 116 kts 61°
2026-05-04 10:27 51.27774 -0.76974 677 ft 156 kts 65°
2026-05-04 10:27 51.28210 -0.75333 1794 ft 166 kts 69°
2026-05-04 10:27 51.28641 -0.73418 2743 ft 197 kts 71°
2026-05-04 10:27 51.29074 -0.71261 3803 ft 213 kts 72°
2026-05-04 10:28 51.29489 -0.68966 5380 ft 201 kts 84°
2026-05-04 10:28 51.29499 -0.66952 7228 ft 195 kts 92°
2026-05-04 10:28 51.29578 -0.64528 7300 ft 227 kts 84°
2026-05-04 10:28 51.29799 -0.61831 7637 ft 264 kts 84°
2026-05-04 10:29 51.29983 -0.58787 8851 ft 279 kts 86°
2026-05-04 10:29 51.30131 -0.55667 10395 ft 289 kts 87°
2026-05-04 10:29 51.30295 -0.52343 11468 ft 317 kts 87°
2026-05-04 10:29 51.30490 -0.48711 12718 ft 335 kts 86°
2026-05-04 10:30 51.30690 -0.44980 14321 ft 342 kts 87°
2026-05-04 10:30 51.30886 -0.41147 15708 ft 350 kts 87°
2026-05-04 10:30 51.31083 -0.37228 17106 ft 358 kts 87°
2026-05-04 10:30 51.31286 -0.33227 18386 ft 366 kts 87°
2026-05-04 10:31 51.31495 -0.29131 19455 ft 372 kts 87°
2026-05-04 10:31 51.31636 -0.26320 20136 ft 377 kts 87°
2026-05-04 10:32 51.32882 -0.00845 25226 ft 409 kts 88°
2026-05-04 10:33 51.32945 0.03708 25806 ft 412 kts 97°
2026-05-04 10:33 51.32517 0.08254 26654 ft 413 kts 105°
2026-05-04 10:33 51.31958 0.12774 27384 ft 418 kts 106°
2026-05-04 10:33 51.31394 0.17371 28102 ft 423 kts 106°
2026-05-04 10:34 51.30890 0.21520 28746 ft 427 kts 106°
2026-05-04 10:34 51.30421 0.25355 29342 ft 431 kts 107°
2026-05-04 10:34 51.29838 0.30079 30033 ft 435 kts 107°
2026-05-04 10:34 51.29247 0.34850 30615 ft 440 kts 107°
2026-05-04 10:35 51.28650 0.39678 31174 ft 444 kts 107°
2026-05-04 10:35 51.28046 0.44550 31717 ft 449 kts 106°
2026-05-04 10:35 51.27462 0.49242 32197 ft 453 kts 106°
2026-05-04 10:35 51.26850 0.54133 32773 ft 455 kts 106°
2026-05-04 10:36 51.26217 0.59171 33286 ft 459 kts 106°
2026-05-04 10:36 51.25587 0.64143 33784 ft 463 kts 106°
2026-05-04 10:36 51.24943 0.69191 34225 ft 467 kts 105°
2026-05-04 10:36 51.24288 0.74303 34608 ft 471 kts 105°
2026-05-04 10:37 51.23633 0.79441 34977 ft 476 kts 105°
2026-05-04 10:37 51.22971 0.84633 35407 ft 478 kts 105°
2026-05-04 10:37 51.22302 0.89838 35928 ft 478 kts 104°
2026-05-04 10:37 51.21631 0.95023 36351 ft 479 kts 104°
2026-05-04 10:39 51.17556 1.26165 39013 ft 479 kts 103°
2026-05-04 10:39 51.16867 1.31368 39348 ft 479 kts 103°
2026-05-04 10:39 51.16245 1.36571 39658 ft 480 kts 98°
2026-05-04 10:40 51.15982 1.41888 39979 ft 481 kts 95°
2026-05-04 10:40 51.15740 1.47201 40299 ft 480 kts 96°
2026-05-04 10:40 51.15474 1.52480 40601 ft 480 kts 96°
2026-05-04 10:40 51.15209 1.57781 40876 ft 480 kts 96°
2026-05-04 10:41 51.14953 1.63095 41010 ft 484 kts 96°
2026-05-04 10:41 51.14425 1.73773 41012 ft 486 kts 96°
2026-05-04 10:42 51.13885 1.84411 41005 ft 479 kts 96°
2026-05-04 10:42 51.13343 1.94929 40935 ft 476 kts 96°
2026-05-04 10:43 51.12786 2.05509 40946 ft 482 kts 96°
2026-05-04 10:45 51.10460 2.47972 40999 ft 479 kts 97°
2026-05-04 10:45 51.09855 2.58562 40998 ft 481 kts 97°
2026-05-04 10:46 51.08783 2.69051 41000 ft 479 kts 108°
2026-05-04 10:46 51.06922 2.79261 41011 ft 481 kts 108°
2026-05-04 10:47 51.05073 2.89487 40929 ft 480 kts 108°
2026-05-04 10:47 51.03216 2.99613 40938 ft 475 kts 108°
2026-05-04 10:49 50.95749 3.39915 40979 ft 479 kts 109°
2026-05-04 10:50 50.93845 3.50049 40979 ft 479 kts 109°
2026-05-04 10:52 50.86142 3.90239 40995 ft 480 kts 110°
2026-05-04 10:52 50.84167 4.00352 40994 ft 480 kts 110°
2026-05-04 10:54 50.76284 4.40278 40971 ft 479 kts 110°
2026-05-04 10:56 50.68406 4.80245 40999 ft 480 kts 111°
2026-05-04 10:57 50.66406 4.90358 41006 ft 483 kts 113°
2026-05-04 10:57 50.63665 4.99898 41005 ft 476 kts 120°
2026-05-04 10:58 50.60889 5.09179 41001 ft 473 kts 120°
2026-05-04 10:58 50.58065 5.18497 40998 ft 472 kts 120°
2026-05-04 10:59 50.55219 5.27892 40999 ft 477 kts 120°
2026-05-04 10:59 50.52338 5.37355 40998 ft 480 kts 120°
2026-05-04 11:00 50.49490 5.46676 40998 ft 478 kts 120°
2026-05-04 11:02 50.37958 5.84050 40982 ft 477 kts 120°
2026-05-04 11:05 50.17192 6.54432 40972 ft 484 kts 107°
2026-05-04 11:06 50.15528 6.64576 40993 ft 482 kts 108°
2026-05-04 11:06 50.13865 6.74688 40985 ft 481 kts 108°
2026-05-04 11:10 50.02025 7.44977 41005 ft 480 kts 108°
2026-05-04 11:12 49.95105 7.84776 40990 ft 476 kts 108°
2026-05-04 11:12 49.93351 7.94728 40995 ft 478 kts 108°
2026-05-04 11:13 49.91588 8.04669 40996 ft 479 kts 108°
2026-05-04 11:13 49.89810 8.14645 40992 ft 479 kts 108°
2026-05-04 11:16 49.73830 8.57410 41005 ft 463 kts 149°
2026-05-04 11:16 49.68103 8.61670 41010 ft 455 kts 166°
2026-05-04 11:17 49.61936 8.63637 41015 ft 452 kts 172°
2026-05-04 11:19 49.41647 8.71323 41008 ft 457 kts 158°
2026-05-04 11:19 49.38787 8.73322 41010 ft 456 kts 159°
2026-05-04 11:19 49.32997 8.77324 41008 ft 456 kts 159°
2026-05-04 11:20 49.27229 8.81330 41007 ft 456 kts 159°
2026-05-04 11:20 49.21448 8.85320 41005 ft 455 kts 159°
2026-05-04 11:22 48.98181 9.01296 41039 ft 459 kts 159°
2026-05-04 11:23 48.92374 9.05258 41028 ft 457 kts 159°
2026-05-04 11:25 48.72072 9.19027 41040 ft 460 kts 159°
2026-05-04 11:25 48.66211 9.22979 41044 ft 461 kts 159°
2026-05-04 11:27 48.39319 9.38501 41021 ft 457 kts 162°
2026-05-04 11:28 48.33372 9.41811 40462 ft 451 kts 162°
2026-05-04 11:28 48.30407 9.43450 39342 ft 455 kts 162°
2026-05-04 11:28 48.27480 9.45071 38849 ft 444 kts 163°
2026-05-04 11:29 48.24587 9.46580 38210 ft 436 kts 167°
2026-05-04 11:29 48.21698 9.47814 37657 ft 433 kts 167°
2026-05-04 11:29 48.18779 9.49075 37085 ft 441 kts 167°
2026-05-04 11:29 48.15787 9.50385 36475 ft 453 kts 166°
2026-05-04 11:31 47.95458 9.63391 32195 ft 468 kts 147°
2026-05-04 11:33 47.77179 9.83055 27903 ft 449 kts 147°
2026-05-04 11:33 47.74653 9.85765 27313 ft 447 kts 147°
2026-05-04 11:33 47.72143 9.88452 26726 ft 442 kts 147°
2026-05-04 11:34 47.69658 9.91105 26153 ft 436 kts 147°
2026-05-04 11:34 47.67209 9.93718 25585 ft 431 kts 147°
2026-05-04 11:34 47.64788 9.96298 25025 ft 426 kts 147°
2026-05-04 11:34 47.62392 9.98849 24463 ft 422 kts 147°
2026-05-04 11:35 47.60017 10.01376 23915 ft 418 kts 147°
2026-05-04 11:35 47.57667 10.03871 23328 ft 414 kts 147°
2026-05-04 11:35 47.55329 10.06353 22777 ft 408 kts 147°
2026-05-04 11:35 47.53044 10.08774 22250 ft 403 kts 147°
2026-05-04 11:36 47.50767 10.11184 21728 ft 401 kts 147°
2026-05-04 11:36 47.48507 10.13574 21201 ft 399 kts 147°
2026-05-04 11:36 47.46247 10.15962 20675 ft 397 kts 147°
2026-05-04 11:36 47.44009 10.18314 20157 ft 393 kts 148°
2026-05-04 11:37 47.41711 10.20437 19654 ft 388 kts 151°
2026-05-04 11:37 47.39406 10.22518 19142 ft 385 kts 151°
2026-05-04 11:37 47.37170 10.24674 18629 ft 382 kts 146°
2026-05-04 11:37 47.35208 10.27270 18102 ft 380 kts 137°
2026-05-04 11:38 47.33569 10.30258 17605 ft 379 kts 128°
2026-05-04 11:38 47.32309 10.33670 17088 ft 382 kts 113°
2026-05-04 11:38 47.31609 10.37453 16601 ft 382 kts 106°
2026-05-04 11:38 47.31068 10.41272 16097 ft 379 kts 104°
2026-05-04 11:39 47.30530 10.45000 15611 ft 364 kts 105°
2026-05-04 11:39 47.29946 10.48542 15141 ft 347 kts 107°
2026-05-04 11:40 47.29125 10.67966 12350 ft 304 kts 88°
2026-05-04 11:41 47.29281 10.71029 11871 ft 302 kts 88°
2026-05-04 11:41 47.29439 10.74101 11387 ft 301 kts 88°
2026-05-04 11:41 47.29592 10.77173 10909 ft 299 kts 87°
2026-05-04 11:41 47.29744 10.80213 10450 ft 295 kts 87°
2026-05-04 11:42 47.29896 10.83210 9986 ft 291 kts 87°
2026-05-04 11:42 47.30041 10.86149 9509 ft 286 kts 87°
2026-05-04 11:42 47.30183 10.89048 9051 ft 281 kts 87°
2026-05-04 11:42 47.30323 10.91884 8605 ft 276 kts 87°
2026-05-04 11:43 47.30458 10.94653 8158 ft 263 kts 87°
2026-05-04 11:43 47.30585 10.97263 7766 ft 252 kts 87°
2026-05-04 11:43 47.30708 10.99811 7371 ft 245 kts 87°
2026-05-04 11:43 47.30826 11.02231 7027 ft 222 kts 87°
2026-05-04 11:44 47.30927 11.04316 6679 ft 189 kts 87°
2026-05-04 11:44 47.30992 11.06123 6408 ft 170 kts 93°
2026-05-04 11:44 47.30786 11.07820 6162 ft 170 kts 108°
2026-05-04 11:44 47.30326 11.09430 5897 ft 172 kts 117°
2026-05-04 11:45 47.29798 11.11037 5634 ft 175 kts 117°
2026-05-04 11:45 47.29256 11.12644 5359 ft 175 kts 117°
2026-05-04 11:45 47.28726 11.14256 5136 ft 168 kts 117°
2026-05-04 11:45 47.28216 11.15797 4850 ft 175 kts 116°
2026-05-04 11:46 47.27669 11.17445 4553 ft 182 kts 117°
2026-05-04 11:46 47.27123 11.19102 4248 ft 178 kts 116°
2026-05-04 11:46 47.26594 11.20725 3964 ft 172 kts 117°
2026-05-04 11:46 47.26098 11.22227 3704 ft 156 kts 116°
2026-05-04 11:47 47.25642 11.23613 3460 ft 148 kts 117°
2026-05-04 11:47 47.25240 11.25002 3179 ft 149 kts 103°
2026-05-04 11:47 47.25189 11.26486 2954 ft 148 kts 89°
2026-05-04 11:47 47.25331 11.28012 2754 ft 152 kts 82°
2026-05-04 11:48 47.25520 11.29561 2496 ft 152 kts 84°
2026-05-04 11:48 47.25670 11.31083 2267 ft 148 kts 85°
2026-05-04 11:48 47.25823 11.32588 2029 ft 147 kts 82°
2026-05-04 11:48 47.25978 11.34006 1916 ft 125 kts 82°
2026-05-04 11:49 47.26083 11.34948 1906 ft 66 kts 83°
2026-05-04 11:49 47.26106 11.35206 1914 ft 4 kts 93°
2026-05-04 11:49 47.26099 11.35242 1914 ft 2 kts 145°
2026-05-04 11:49 47.26062 11.35258 1914 ft 9 kts 173°
2026-05-04 11:50 47.25995 11.35274 1896 ft 11 kts 171°
2026-05-04 11:50 47.25949 11.35285 1893 ft 0 kts 171°
2026-05-04 11:50 47.25920 11.35292 1898 ft 12 kts 172°
2026-05-04 11:51 47.25892 11.35161 1894 ft 19 kts 265°
2026-05-04 11:51 47.25867 11.34953 1894 ft 22 kts 259°
2026-05-04 11:51 47.25833 11.34719 1892 ft 25 kts 257°
2026-05-04 11:51 47.25822 11.34594 1898 ft 0 kts 271°
2026-05-04 11:52 47.25822 11.34582 1898 ft 6 kts 271°
2026-05-04 11:52 47.25795 11.34525 1892 ft 6 kts 162°
2026-05-04 11:52 47.25756 11.34549 1895 ft 3 kts 120°
2026-05-04 11:52 47.25754 11.34602 1898 ft 7 kts 69°
2026-05-04 11:53 47.25769 11.34617 1890 ft 0 kts 22°
2026-05-04 11:53 47.25774 11.34622 1893 ft 1 kts 45°
2026-05-04 11:55 47.25770 11.34651 1891 ft 0 kts 220°